Regional Weather Roundup
Issued by NWS Upton, NY

Current Version | Previous Version | Graphics & Text | Print | Product List | Glossary Off
Versions: 1 2 3 4 5 6 7 8 9 10 11 12 13 14 15 16 17 18 19 20 21 22 23 24 25 26 27 28 29 30 31 32 33 34 35 36 37 38 39 40 41 42 43 44 45 46 47 48 49 50

890
ASUS41 KOKX 200208
RWROKX

REGIONAL WEATHER ROUNDUP
NATIONAL WEATHER SERVICE NEW YORK NY
900 PM EST SUN FEB 19 2017

NOTE: "FAIR" INDICATES FEW OR NO CLOUDS BELOW 12,000 FEET WITH NO
SIGNIFICANT WEATHER AND/OR OBSTRUCTIONS TO VISIBILITY.

NYZ071-072-176-178-NJZ106-104-200300-
NEW YORK CITY METRO AREA

CITY           SKY/WX    TMP DP  RH WIND       PRES   REMARKS
Central Park   CLEAR     58  30  34 N6        29.96R
Wall St Helipt NOT AVBL
LaGuardia APRT CLEAR     57  30  35 N8        29.93R
Kennedy INTL   CLEAR     57  32  38 N13       29.94R
Breezy Point     N/A     57 N/A N/A NW6         N/A
Newark/Liberty CLEAR     59  32  36 NW9       29.93R
Teterboro      CLEAR     56  31  38 N10       29.94R
$$

NYZ177-179-078>081-200300-
LONG ISLAND NEW YORK

CITY           SKY/WX    TMP DP  RH WIND       PRES   REMARKS
Jones Beach      N/A     54 N/A N/A N7          N/A
Matinecock PT    N/A     54 N/A N/A NW6         N/A
Farmingdale    PTCLDY    54  29  38 NW6       29.93R
MacArthur/ISP  CLEAR     50  28  42 NW6       29.92R
Shirley        CLEAR     47  29  49 N5        29.93R
Westhampton    CLEAR     36  27  69 NE6       29.93R WCI  31
Southampton    NOT AVBL
Bridgehampton  NOT AVBL
East Hampton     N/A     40  31  70 CALM      29.91R
Montauk          N/A     44  35  70 CALM      29.92R
$$

NYZ052-065-067-200300-
HUDSON VALLEY

CITY           SKY/WX    TMP DP  RH WIND       PRES   REMARKS
White Plains   CLEAR     48  27  44 NW5       29.93R
Newburgh       CLEAR     48  34  57 NW7       29.96R
Montgomery     CLEAR     37  29  72 CALM      29.94R
Poughkeepsie   CLEAR     38  29  70 CALM      29.94R
Albany         MOCLDY    45  31  58 W10       29.95R
$$

NJZ001-105-106-008-010-013-015-019>022-104-200300-
NEW JERSEY

CITY           SKY/WX    TMP DP  RH WIND       PRES   REMARKS
Newark/Liberty CLEAR     59  32  36 NW9       29.93R
Teterboro      CLEAR     56  31  38 N10       29.94R
Caldwell       CLEAR     45  33  63 E3        29.95R
Somerville     CLEAR     43  33  68 CALM      29.93R
Linden         NOT AVBL
Sussex         CLEAR     37  31  78 CALM      29.97R
Andover          N/A     35  32  88 N5        29.95R WCI  31
Trenton        CLEAR     54  35  48 CALM      29.93R
Millville      CLEAR     41  36  82 CALM      29.95R
Atlantic City  CLEAR     53  34  48 CALM      29.94R
Wrightstown    CLEAR     48  35  62 CALM      29.91R
Toms River     CLEAR     42  33  70 CALM      29.94R
Belmar         CLEAR     55  32  41 W6        29.94R
$$

PAZ047>061-062-071-200300-
EASTERN PENNSYLVANIA

CITY           SKY/WX    TMP DP  RH WIND       PRES   REMARKS
Philadelphia   CLEAR     58  35  42 W7        29.96R
Allentown      CLEAR     53  35  50 W6        29.96R
Scranton       CLEAR     52  31  44 NW8       29.99R
$$

CTZ002-004>006-009-010-012-RIZ004-006-007-MAZ004-011-015-200300-
SOUTHERN NEW ENGLAND
 IN CT

CITY           SKY/WX    TMP DP  RH WIND       PRES   REMARKS
Bradley INTL   PTCLDY    45  31  58 W8        29.92R
Hartford       PTCLDY    50  31  48 NW6       29.93R
Danbury        CLEAR     36  29  75 CALM      29.94R
Wtrbury/Oxford CLEAR     45  27  49 N6        29.94R
Bridgeport     CLEAR     53  29  39 N5        29.92R
Meriden        CLEAR     39  29  67 CALM      29.93R
New Haven      CLEAR     47  30  51 N3        29.92R
Chester          N/A     50  30  46 NW9       29.92R
Groton         PTCLDY    50  31  48 N12       29.90R
Wilimantic     CLEAR     52  31  44 W8        29.91R

 IN RI

CITY           SKY/WX    TMP DP  RH WIND       PRES   REMARKS
Providence     CLEAR     49  30  48 W9        29.88R
Block Island   CLEAR     50  32  50 NW7       29.90R
Westerly       PTCLDY    51  28  41 NW7       29.91R
 IN MA

CITY           SKY/WX    TMP DP  RH WIND       PRES   REMARKS
Boston         MOCLDY    50  33  52 NW7       29.86R
Worcester      PTCLDY    43  29  57 W9        29.87R
Westfield      CLEAR     45  31  58 NW5       29.90R
Provincetown   MOCLDY    43  35  73 SW5       29.85R
Nantucket      CLEAR     45  33  63 W10       29.85R
$$

ANZ330-335-338-340-345-350-353-355-200300-
COASTAL MARINE OBSERVATIONS


STATION/POSITION TIME  SKY/WX   TEMP    WIND        PRES    VSBY  WAVE
                                AIR SEA DIR/SP/G                  HT/PER
                 (UTC)          (F)     (DEG/KT/KT) (MB)    (MI)  (FT/S)
NY HARB ENTRANCE 0150            53 43  290/  8/  8 1012.9          2/ 7
20 S FIRE ISLAND 0150            48 41  310/  6/  8 1012.9          3/ 7
GREAT SOUTH BAY  NOT AVBL
23 SSW MONTAUK P 0050            47 44              1011.8          4/ 7
15 E BARNEGAT LI 0130               42                N/A           3/ 7
HUDSON CANYON    0050               51              1012.3          3/ 7
KINGS POINT      0136            56 38              1013.2
EXECUTION ROCKS  NOT AVBL
CENTRAL LI SOUND 0130            45     350/  6/  8   N/A           1
EASTERN LI SOUND NOT AVBL
ROBBINS REEF     0142            56     300/  3/  3 1013.5
$$


>>>>>>>>>>>>>>>>>>>>>>>>>>>> KEY <<<<<<<<<<<<<<<<<<<<<<<<<<<
>                                                          <
>     SKY/WX - Sky Condition/Present Weather               <
>     TMP    - Temperature in Fahrenheit                   <
>     DP     - Dew Point in Fahrenheit                     <
>     RH     - Relative Humidity in Percent                <
>     WIND   - Direction (from) and Speed in MPH           <
>     PRES   - Mean Sea Level Pressure (inches of Hg)      <
>     WCI    - Wind Chill Index                            <
>     VSB    - VISIBILITY IN MILES                         <
>     HX     - HEAT INDEX                                  <
>     TC     - TEMPERATURE IN CELSIUS                      <
>     VRB    - VARIABLE WIND DIRECTION                     <
>                                                          <
>>>>>>>>>>>>>>>>>>>>>>>>>>>> KEY <<<<<<<<<<<<<<<<<<<<<<<<<<<




USA.gov is the U.S. government's official web portal to all federal, state and local government web resources and services.